FW0295 Weather Reports


Display with metric or nautical units.
time (UTC)temp
F
wind
direction
speed
MPH
gust
MPH
rain 1hr
in
rain 24hr
in
rain mn
in
humidity
%
barometer
mb
20260505011517 76 360 0.0 0.0 0.00 0.00 0.00 28 998.3
20260505010011 77 360 0.0 0.0 0.00 0.00 0.00 27 998.2
20260505004508 79 360 0.0 0.0 0.00 0.00 0.00 25 998.2
20260505003012 80 360 0.0 0.0 0.00 0.00 0.00 23 998.3
20260505001501 80 360 0.0 0.0 0.00 0.00 0.00 23 999.0
20260504234532 81 360 0.0 0.0 0.00 0.00 0.00 22 998.6
20260504233027 81 360 0.0 0.0 0.00 0.00 0.00 21 998.7
20260504231523 81 360 0.0 0.0 0.00 0.00 0.00 21 998.7
20260504230019 82 360 0.0 0.0 0.00 0.00 0.00 21 999.1
20260504224517 82 360 0.0 0.0 0.00 0.00 0.00 21 999.1
20260504223016 83 360 0.0 0.0 0.00 0.00 0.00 21 998.9
20260504221511 83 360 0.0 0.0 0.00 0.00 0.00 20 999.1
20260504220011 83 360 0.0 0.0 0.00 0.00 0.00 20 999.0
20260504214508 83 360 0.0 0.0 0.00 0.00 0.00 20 999.4
20260504213007 84 360 0.0 0.0 0.00 0.00 0.00 19 999.5
20260504211504 85 360 0.0 0.0 0.00 0.00 0.00 19 999.4
20260504210003 85 360 0.0 0.0 0.00 0.00 0.00 19 999.6
20260504204503 84 360 0.0 0.0 0.00 0.00 0.00 19 999.5
20260504203110 84 360 0.0 0.0 0.00 0.00 0.00 19 999.8
20260504201557 84 360 0.0 0.0 0.00 0.00 0.00 19 1000.1
20260504200053 86 360 0.0 0.0 0.00 0.00 0.00 18 1000.4
20260504194601 86 360 0.0 0.0 0.00 0.00 0.00 16 1000.5
20260504193051 87 360 0.0 0.0 0.00 0.00 0.00 16 1000.5
20260504191544 87 360 0.0 0.0 0.00 0.00 0.00 16 1000.7
20260504184538 86 360 0.0 0.0 0.00 0.00 0.00 16 1001.3
20260504183036 87 240 0.0 0.0 0.00 0.00 0.00 21 1001.5
20260504181535 87 240 0.0 0.0 0.00 0.00 0.00 21 1001.7
20260504180031 86 240 0.0 0.0 0.00 0.00 0.00 22 1001.9
20260504174526 86 238 0.0 0.0 0.00 0.00 0.00 24 1002.2
20260504173024 85 242 0.0 0.0 0.00 0.00 0.00 25 1002.5
20260504171517 84 242 0.0 0.0 0.00 0.00 0.00 27 1002.6
20260504081508 57 242 0.0 0.0 0.00 0.00 0.00 41 1004.0
20260504050005 61 239 0.0 0.0 0.00 0.00 0.00 29 1005.4
20260504044506 62 239 0.0 0.0 0.00 0.00 0.00 28 1005.5
20260504043031 63 239 0.0 0.0 0.00 0.00 0.00 29 1005.7
20260504041527 64 239 0.0 0.0 0.00 0.00 0.00 28 1005.8
20260504040024 64 239 0.0 0.0 0.00 0.00 0.00 27 1005.9
20260504034520 65 239 0.0 0.0 0.00 0.00 0.00 26 1005.9
20260504033017 67 238 0.0 0.0 0.00 0.00 0.00 24 1005.7
20260504031514 68 239 0.0 0.0 0.00 0.00 0.00 24 1005.7
20260504030010 69 239 0.0 0.0 0.00 0.00 0.00 23 1005.5
20260504024507 69 233 0.0 0.0 0.00 0.00 0.00 22 1005.2
20260504023004 71 195 0.0 0.0 0.00 0.00 0.00 22 1005.1
20260504021601 72 188 0.0 0.0 0.00 0.00 0.00 21 1005.0
20260504020056 73 360 0.0 0.0 0.00 0.00 0.00 21 1004.9
20260504014557 74 225 0.0 0.0 0.00 0.00 0.00 20 1004.7
20260504013048 76 207 0.0 0.0 0.00 0.00 0.00 19 1004.6
20260504011545 78 360 0.0 0.0 0.00 0.00 0.00 18 1004.7